Weather History for KCFS - October, 2012

Change the Weather History Date:

Monday, October 15, 2012

  Actual Average (KMBS) Record (KMBS)
Temperature  
Mean Temperature 50 °F 50 °F  
Max Temperature 56 °F 60 °F 66 °F (1996)
Min Temperature 45 °F 40 °F 30 °F (2006)
Degree Days  
Heating Degree Days 14    
Month to date heating degree days  
Since 1 July heating degree days  
Cooling Degree Days 0    
Month to date cooling degree days  
Year to date cooling degree days  
Moisture  
Dew Point 43 °F    
Average Humidity 85    
Maximum Humidity 97    
Minimum Humidity 70    
Precipitation  
Precipitation 0.00 in 0.08 in 0.32 in (2004)
Month to date precipitation 1.35  
Year to date precipitation 25.70  
Snow  
Snow 0.00 in - - ()
Month to date snowfall  
Since 1 July snowfall  
Since 1 September snowfall  
Snow Depth -    
Sea Level Pressure  
Sea Level Pressure 29.72 in    
Wind  
Wind Speed 15 mph (West)    
Max Wind Speed 22 mph    
Max Gust Speed 32 mph    
Visibility 10 miles    
Events Rain    
T = Trace of Precipitation, MM = Missing Value Source: NWS Daily Summary

Daily Weather History Graph

Daily Weather History Graph

Search for Another Location

Airport or City:

Trip Planner

Search our weather history database for the weather conditions in past years. The results will help you decide how hot, cold, wet, or windy it might be!

Date:

Astronomy

Oct. 15, 2012 Rise Set
Actual Time 7:48 AM EDT 6:49 PM EDT
Civil Twilight 7:19 AM EDT 7:18 PM EDT
Nautical Twilight 6:46 AM EDT 7:51 PM EDT
Astronomical Twilight 6:13 AM EDT 8:24 PM EDT
Moon 7:59 AM EDT (10/15) 6:46 PM EDT (10/15)
Length of Visible Light 11h 59m
Length of Day
11h 01m
New Moon, 0% of the Moon is Illuminated
Oct 15
New Moon
Oct 21
First Quarter
Oct 29
Full
Nov 6
Last Quarter
Nov 13
New

Hourly Weather History & Observations

Time (EDT) Temp. Windchill Dew Point Humidity Pressure Visibility Wind Dir Wind Speed Gust Speed Precip Events Conditions
12:15 AM 56.3 °F - 55.6 °F 97% 29.40 in 7.0 mi West 20.7 mph 32.2 mph N/A   Drizzle
12:35 AM 53.4 °F - 51.8 °F 94% 29.42 in 10.0 mi West 21.9 mph 27.6 mph N/A   Overcast
1:15 AM 51.6 °F - 48.6 °F 89% 29.45 in 10.0 mi WSW 13.8 mph - N/A   Overcast
1:34 AM 51.3 °F - 47.3 °F 86% 29.46 in 10.0 mi WSW 17.3 mph 26.5 mph N/A   Overcast
1:55 AM 50.5 °F - 46.2 °F 85% 29.48 in 10.0 mi WSW 15.0 mph 27.6 mph N/A   Overcast
2:15 AM 50.2 °F - 46.8 °F 88% 29.50 in 10.0 mi WSW 19.6 mph 23.0 mph N/A   Overcast
2:34 AM 50.2 °F - 45.7 °F 85% 29.51 in 10.0 mi West 17.3 mph 25.3 mph N/A   Overcast
2:55 AM 49.3 °F - 46.6 °F 90% 29.50 in 7.0 mi West 17.3 mph 25.3 mph N/A   Overcast
3:15 AM 49.6 °F - 45.5 °F 86% 29.51 in 10.0 mi West 18.4 mph 26.5 mph N/A   Overcast
3:34 AM 49.5 °F - 45.5 °F 86% 29.53 in 10.0 mi WSW 13.8 mph 24.2 mph N/A   Overcast
3:55 AM 49.1 °F - 44.6 °F 84% 29.53 in 10.0 mi West 18.4 mph 25.3 mph N/A   Overcast
4:14 AM 49.1 °F - 44.6 °F 84% 29.54 in 10.0 mi West 18.4 mph 29.9 mph N/A   Overcast
4:34 AM 48.6 °F - 43.0 °F 81% 29.54 in 10.0 mi West 18.4 mph 25.3 mph N/A   Overcast
4:55 AM 48.2 °F - 42.6 °F 81% 29.55 in 10.0 mi WSW 16.1 mph 26.5 mph N/A   Overcast
5:14 AM 48.2 °F - 42.4 °F 80% 29.57 in 10.0 mi WSW 15.0 mph 25.3 mph N/A   Overcast
5:55 AM 47.8 °F - 42.1 °F 80% 29.58 in 10.0 mi West 16.1 mph 26.5 mph N/A   Overcast
6:14 AM 47.8 °F - 41.9 °F 80% 29.59 in 10.0 mi WSW 19.6 mph 26.5 mph N/A   Overcast
6:35 AM 47.7 °F - 41.9 °F 80% 29.59 in 10.0 mi West 16.1 mph 24.2 mph N/A   Overcast
6:55 AM 47.7 °F - 42.1 °F 81% 29.60 in 10.0 mi West 15.0 mph 24.2 mph N/A   Overcast
7:14 AM 47.3 °F - 42.3 °F 83% 29.62 in 10.0 mi WSW 15.0 mph 21.9 mph N/A   Light Drizzle
7:35 AM 46.6 °F - 43.0 °F 87% 29.63 in 10.0 mi WSW 15.0 mph 20.7 mph N/A   Light Drizzle
7:54 AM 46.6 °F - 42.8 °F 87% 29.64 in 10.0 mi West 12.7 mph 21.9 mph N/A   Overcast
8:15 AM 46.4 °F 39.8 °F 42.3 °F 85% 29.65 in 10.0 mi WSW 16.1 mph 24.2 mph N/A   Overcast
8:35 AM 46.4 °F 39.5 °F 42.4 °F 86% 29.66 in 10.0 mi West 17.3 mph 25.3 mph N/A   Overcast
8:54 AM 46.4 °F 40.7 °F 42.4 °F 86% 29.66 in 10.0 mi WSW 12.7 mph 19.6 mph N/A   Overcast
9:15 AM 46.0 °F 39.9 °F 43.2 °F 90% 29.67 in 10.0 mi WSW 13.8 mph 23.0 mph N/A   Drizzle
9:35 AM 45.9 °F 39.1 °F 43.3 °F 91% 29.68 in 10.0 mi West 16.1 mph 23.0 mph N/A   Drizzle
9:54 AM 45.9 °F 40.4 °F 43.7 °F 92% 29.69 in 10.0 mi West 11.5 mph 19.6 mph N/A   Drizzle
10:15 AM 46.4 °F 40.1 °F 43.7 °F 90% 29.69 in 10.0 mi West 15.0 mph 20.7 mph N/A   Light Drizzle
10:35 AM 46.8 °F - 43.7 °F 89% 29.70 in 10.0 mi West 16.1 mph 20.7 mph N/A   Overcast
10:54 AM 47.3 °F - 43.5 °F 87% 29.70 in 10.0 mi West 16.1 mph 20.7 mph N/A   Overcast
11:34 AM 48.2 °F - 43.9 °F 85% 29.72 in 7.0 mi WNW 13.8 mph 20.7 mph N/A   Drizzle
11:55 AM 47.5 °F - 44.4 °F 89% 29.72 in 7.0 mi West 10.4 mph 18.4 mph N/A   Drizzle
12:15 PM 47.5 °F - 43.9 °F 87% 29.73 in 10.0 mi WNW 15.0 mph 23.0 mph N/A   Drizzle
12:34 PM 47.3 °F - 43.9 °F 88% 29.74 in 10.0 mi WNW 12.7 mph 19.6 mph N/A Rain Light Rain
12:55 PM 47.3 °F - 43.0 °F 85% 29.75 in 10.0 mi WNW 10.4 mph 18.4 mph N/A   Drizzle
1:14 PM 47.7 °F - 43.5 °F 86% 29.76 in 10.0 mi WNW 12.7 mph 18.4 mph N/A Rain Light Rain
1:35 PM 48.4 °F - 43.3 °F 83% 29.76 in 10.0 mi WNW 10.4 mph - N/A   Light Drizzle
1:55 PM 48.4 °F - 43.0 °F 82% 29.77 in 10.0 mi WNW 12.7 mph 19.6 mph N/A Rain Rain
2:14 PM 48.2 °F - 43.5 °F 84% 29.78 in 7.0 mi NW 15.0 mph 20.7 mph N/A Rain Rain
2:35 PM 47.5 °F - 44.4 °F 89% 29.78 in 7.0 mi West 11.5 mph 16.1 mph N/A Rain Light Rain
2:55 PM 47.7 °F - 45.0 °F 90% 29.78 in 10.0 mi WNW 10.4 mph - N/A Rain Rain
3:14 PM 47.7 °F - 44.8 °F 90% 29.79 in 10.0 mi WNW 11.5 mph - N/A   Drizzle
3:35 PM 47.1 °F - 44.6 °F 91% 29.79 in 10.0 mi NW 9.2 mph - N/A   Drizzle
3:55 PM 46.8 °F - 44.2 °F 91% 29.80 in 10.0 mi WNW 10.4 mph - N/A   Overcast
4:14 PM 46.8 °F - 43.9 °F 90% 29.81 in 10.0 mi WNW 11.5 mph - N/A   Overcast
4:35 PM 47.3 °F - 43.5 °F 87% 29.82 in 10.0 mi WNW 8.1 mph - N/A   Overcast
4:55 PM 47.1 °F - 42.8 °F 85% 29.82 in 10.0 mi West 9.2 mph 17.3 mph N/A   Overcast
5:14 PM 46.8 °F - 43.3 °F 88% 29.83 in 10.0 mi West 10.4 mph 16.1 mph N/A   Overcast
5:35 PM 46.6 °F - 42.8 °F 87% 29.84 in 10.0 mi West 10.4 mph - N/A   Overcast
5:54 PM 46.4 °F 41.1 °F 42.8 °F 87% 29.84 in 10.0 mi West 11.5 mph - N/A   Overcast
6:15 PM 46.4 °F 41.9 °F 42.1 °F 85% 29.84 in 10.0 mi West 9.2 mph - N/A   Overcast
6:34 PM 46.4 °F 41.5 °F 41.9 °F 84% 29.85 in 10.0 mi West 10.4 mph - N/A   Overcast
6:55 PM 46.4 °F 42.4 °F 41.9 °F 84% 29.84 in 10.0 mi WNW 8.1 mph - N/A   Overcast
7:15 PM 46.4 °F 42.4 °F 40.8 °F 81% 29.85 in 10.0 mi WNW 8.1 mph - N/A   Overcast
7:34 PM 46.0 °F 41.9 °F 41.4 °F 84% 29.86 in 10.0 mi West 8.1 mph - N/A   Overcast
7:55 PM 46.0 °F 41.9 °F 41.0 °F 83% 29.87 in 10.0 mi West 8.1 mph - N/A   Overcast
8:15 PM 46.0 °F 41.9 °F 40.5 °F 81% 29.88 in 10.0 mi West 8.1 mph - N/A   Overcast
8:34 PM 45.9 °F 41.2 °F 40.5 °F 81% 29.88 in 10.0 mi West 9.2 mph - N/A   Overcast
8:55 PM 45.9 °F 42.9 °F 40.6 °F 82% 29.88 in 10.0 mi WNW 5.8 mph - N/A   Overcast
9:14 PM 45.7 °F 41.0 °F 40.8 °F 83% 29.89 in 10.0 mi West 9.2 mph - N/A   Overcast
9:35 PM 45.5 °F 41.3 °F 40.6 °F 83% 29.90 in 10.0 mi West 8.1 mph - N/A   Overcast
9:55 PM 45.5 °F 41.8 °F 40.5 °F 83% 29.90 in 10.0 mi WNW 6.9 mph - N/A   Overcast
10:14 PM 45.5 °F 42.5 °F 40.3 °F 82% 29.90 in 10.0 mi NW 5.8 mph - N/A   Overcast
10:35 PM 45.5 °F 42.5 °F 40.3 °F 82% 29.90 in 10.0 mi WNW 5.8 mph - N/A   Overcast
10:55 PM 45.5 °F 42.5 °F 40.1 °F 81% 29.90 in 10.0 mi WNW 5.8 mph - N/A   Overcast
11:14 PM 45.5 °F 44.2 °F 40.1 °F 81% 29.91 in 10.0 mi WNW 3.5 mph - N/A   Overcast
11:35 PM 45.1 °F 42.0 °F 38.8 °F 79% 29.91 in 10.0 mi NW 5.8 mph - N/A   Overcast
11:55 PM 45.0 °F 41.8 °F 35.8 °F 70% 29.91 in 10.0 mi NW 5.8 mph - N/A   Overcast